TimeICT,TemperatureF,Dew PointF,Humidity,Sea Level PressureIn,VisibilityMPH,Wind Direction,Wind SpeedMPH,Gust SpeedMPH,PrecipitationIn,Events,Conditions,WindDirDegrees,DateUTC
12:00 AM,77.0,68.0,74,29.83,4.3,ENE,9.2,-,N/A,,Mostly Cloudy,60,2011-12-20 17:00:00
12:30 AM,77.0,68.0,74,29.80,4.3,ENE,5.8,-,N/A,,Mostly Cloudy,60,2011-12-20 17:30:00
1:00 AM,77,69,71,29.80,5,ESE,3.5,,,,Mist,120,2011-12-20 18:00:00
1:00 AM,77.0,69.8,78,29.80,4.3,ESE,3.5,-,N/A,,Mostly Cloudy,120,2011-12-20 18:00:00
1:30 AM,77.0,68.0,74,29.80,4.3,East,8.1,-,N/A,,Mostly Cloudy,90,2011-12-20 18:30:00
2:00 AM,77.0,68.0,74,29.80,4.3,ENE,6.9,-,N/A,,Mostly Cloudy,60,2011-12-20 19:00:00
2:30 AM,77.0,68.0,74,29.77,4.3,East,4.6,-,N/A,,Mostly Cloudy,80,2011-12-20 19:30:00
3:00 AM,77.0,68.0,74,29.77,4.3,ENE,6.9,-,N/A,,Mostly Cloudy,60,2011-12-20 20:00:00
3:30 AM,77.0,68.0,74,29.77,4.3,ENE,6.9,-,N/A,,Mostly Cloudy,60,2011-12-20 20:30:00
4:00 AM,77.0,68.0,74,29.77,4.3,East,6.9,-,N/A,,Mostly Cloudy,80,2011-12-20 21:00:00
5:00 AM,75.2,68.0,78,29.77,4.3,East,4.6,-,N/A,,Mostly Cloudy,80,2011-12-20 22:00:00
6:00 AM,75.2,68.0,78,29.80,4.3,East,3.5,-,N/A,,Mostly Cloudy,80,2011-12-20 23:00:00
6:30 AM,75.2,68.0,78,29.80,5.6,ENE,5.8,-,N/A,,Mostly Cloudy,70,2011-12-20 23:30:00
7:00 AM,76,70,75,29.79,6,ENE,6.9,,,,Scattered Clouds,70,2011-12-21 00:00:00
7:00 AM,77.0,68.0,74,29.80,5.6,ENE,6.9,-,N/A,,Mostly Cloudy,60,2011-12-21 00:00:00
7:30 AM,78.8,69.8,74,29.83,5.6,Calm,Calm,-,N/A,,Mostly Cloudy,0,2011-12-21 00:30:00
8:00 AM,80.6,69.8,70,29.83,5.6,East,5.8,-,N/A,,Mostly Cloudy,80,2011-12-21 01:00:00
8:30 AM,80.6,69.8,70,29.86,5.6,ENE,8.1,-,N/A,,Mostly Cloudy,70,2011-12-21 01:30:00
9:00 AM,82.4,69.8,66,29.86,5.6,East,12.7,-,N/A,,Mostly Cloudy,80,2011-12-21 02:00:00
9:30 AM,82.4,71.6,70,29.86,5.6,ENE,9.2,-,N/A,,Mostly Cloudy,70,2011-12-21 02:30:00
10:00 AM,84.2,71.6,66,29.86,5.6,ENE,11.5,-,N/A,,Mostly Cloudy,70,2011-12-21 03:00:00
10:30 AM,86.0,71.6,62,29.83,5.6,ENE,8.1,-,N/A,,Mostly Cloudy,60,2011-12-21 03:30:00
11:00 AM,86.0,71.6,62,29.83,5.6,East,11.5,-,N/A,,Mostly Cloudy,80,2011-12-21 04:00:00
12:00 PM,86.0,71.6,62,29.80,5.6,East,11.5,-,N/A,,Mostly Cloudy,80,2011-12-21 05:00:00
12:30 PM,87.8,71.6,58,29.80,5.6,East,12.7,-,N/A,,Mostly Cloudy,80,2011-12-21 05:30:00
1:00 PM,88,72,51,29.78,6,East,4.6,,,,Mist,80,2011-12-21 06:00:00
1:00 PM,87.8,71.6,58,29.80,5.6,NE,6.9,-,N/A,,Mostly Cloudy,50,2011-12-21 06:00:00
1:30 PM,87.8,71.6,58,29.77,5.6,East,11.5,-,N/A,,Mostly Cloudy,80,2011-12-21 06:30:00
2:00 PM,87.8,71.6,58,29.74,5.6,East,12.7,-,N/A,,Mostly Cloudy,80,2011-12-21 07:00:00
2:30 PM,87.8,71.6,58,29.74,5.6,NE,11.5,-,N/A,,Mostly Cloudy,50,2011-12-21 07:30:00
3:00 PM,87.8,71.6,58,29.74,5.6,East,12.7,-,N/A,,Mostly Cloudy,80,2011-12-21 08:00:00
3:30 PM,87.8,71.6,58,29.71,5.6,ENE,13.8,-,N/A,,Mostly Cloudy,70,2011-12-21 08:30:00
4:00 PM,84.2,71.6,66,29.74,5.6,NE,12.7,-,N/A,,Mostly Cloudy,40,2011-12-21 09:00:00
4:30 PM,82.4,71.6,70,29.74,5.6,East,11.5,-,N/A,,Mostly Cloudy,80,2011-12-21 09:30:00
5:00 PM,80.6,71.6,74,29.74,5.6,ENE,11.5,-,N/A,,Mostly Cloudy,70,2011-12-21 10:00:00
5:30 PM,80.6,71.6,74,29.74,5.6,ENE,6.9,-,N/A,,Mostly Cloudy,70,2011-12-21 10:30:00
6:00 PM,80.6,71.6,74,29.74,5.6,ENE,9.2,-,N/A,,Mostly Cloudy,60,2011-12-21 11:00:00
6:30 PM,78.8,71.6,78,29.77,5.6,ENE,10.4,-,N/A,,Mostly Cloudy,60,2011-12-21 11:30:00
7:00 PM,81,76,80,29.75,6,ENE,3.5,,,,Mist,70,2011-12-21 12:00:00
7:00 PM,78.8,71.6,78,9999.90,5.6,ENE,9.2,-,N/A,,Mostly Cloudy,70,2011-12-21 12:00:00
7:30 PM,78.8,71.6,78,29.77,5.6,ENE,8.1,-,N/A,,Mostly Cloudy,70,2011-12-21 12:30:00
8:00 PM,78.8,71.6,78,29.77,5.6,East,10.4,-,N/A,,Mostly Cloudy,80,2011-12-21 13:00:00
8:30 PM,78.8,71.6,78,29.80,5.6,ENE,8.1,-,N/A,,Mostly Cloudy,70,2011-12-21 13:30:00
9:00 PM,80.6,71.6,74,29.80,5.6,ENE,8.1,-,N/A,,Mostly Cloudy,70,2011-12-21 14:00:00
9:30 PM,80.6,71.6,74,29.80,5.6,ENE,8.1,-,N/A,,Mostly Cloudy,60,2011-12-21 14:30:00
10:00 PM,80.6,71.6,74,29.80,5.6,ENE,9.2,-,N/A,,Mostly Cloudy,70,2011-12-21 15:00:00
10:30 PM,78.8,71.6,78,29.80,5.6,ENE,6.9,-,N/A,,Mostly Cloudy,70,2011-12-21 15:30:00
11:00 PM,78.8,71.6,78,29.80,5.0,ENE,8.1,-,N/A,,Mostly Cloudy,70,2011-12-21 16:00:00
11:30 PM,78.8,71.6,78,29.80,5.0,ENE,6.9,-,N/A,,Mostly Cloudy,70,2011-12-21 16:30:00